Stations météo

réclame
Mon MeteoGroup
Charleroi/Gosselies, Belgique (6449): Température de l'air & dewpoint: 11.08.2018 13:00:00 - 17.08.2018 13:00:00 (CEST)Charleroi/Gosselies, Belgique (6449): Vitesse du vent & gusts: 11.08.2018 13:00:00 - 17.08.2018 13:00:00 (CEST)Charleroi/Gosselies, Belgique (6449): Direction du vent: 11.08.2018 13:00:00 - 17.08.2018 13:00:00 (CEST)Charleroi/Gosselies, Belgique (6449): reduced air pressure: 11.08.2018 13:00:00 - 17.08.2018 13:00:00 (CEST)Charleroi/Gosselies, Belgique (6449): visibility: 11.08.2018 13:00:00 - 17.08.2018 13:00:00 (CEST)
Date & Time tt [°C] td [°C] ff [km/h] ff [knt] fx [km/h] fx [knt] dd ppp [hPa] vv [km]
17.08.2018 13:00:00 20,0 11,8 9 5 22 12 N 1019,9 10
17.08.2018 12:00:00 18,5 12,7 13 7 22 12 NNE 1019,8 10
17.08.2018 11:00:00 16,8 14,5 8 4 - - NW 1019,4 10
17.08.2018 10:00:00 15,7 14,4 5 3 18 10 NW 1018,8 10
17.08.2018 09:00:00 14,9 14,0 9 5 18 10 NW 1018,6 10
17.08.2018 08:00:00 14,7 13,9 8 4 - - NNW 1018,0 10
17.08.2018 07:00:00 14,7 13,6 4 2 14 8 - 1017,3 10
17.08.2018 06:00:00 14,7 14,4 2 1 14 8 - 1017,3 9
17.08.2018 05:00:00 14,9 14,7 8 4 - - - 1016,9 5
17.08.2018 04:00:00 14,8 14,4 11 6 22 12 NNW 1016,5 10
17.08.2018 03:00:00 15,3 14,5 13 7 29 16 NNW 1016,4 10
17.08.2018 02:00:00 17,4 15,1 21 11 - - N 1015,7 10
17.08.2018 01:00:00 17,9 15,2 16 9 29 16 NNW 1016,0 10
17.08.2018 00:00:00 19,0 15,4 11 6 22 12 NW 1015,5 10
16.08.2018 23:00:00 19,6 15,3 15 8 - - NNE 1014,7 10
16.08.2018 22:00:00 20,9 14,8 15 8 25 14 N 1014,7 10
16.08.2018 21:00:00 22,6 14,3 9 5 22 12 N 1013,9 10
16.08.2018 20:00:00 24,5 14,5 13 7 - - NNW 1013,6 10
16.08.2018 19:00:00 26,2 13,6 9 5 22 12 W 1013,6 10
16.08.2018 18:00:00 26,5 13,2 11 6 22 12 W 1013,9 10
16.08.2018 17:00:00 26,0 13,8 8 4 - - W 1014,1 10
16.08.2018 16:00:00 26,0 14,0 11 6 25 14 W 1014,5 10
16.08.2018 15:00:00 25,7 13,9 15 8 25 14 WSW 1014,8 10
16.08.2018 14:00:00 24,4 13,9 13 7 - - S 1015,3 10
16.08.2018 13:00:00 22,7 14,1 11 6 25 14 S 1015,9 10
16.08.2018 12:00:00 21,8 14,1 15 8 25 14 SSW 1016,5 10
16.08.2018 11:00:00 20,5 14,6 15 8 - - S 1016,9 10
16.08.2018 10:00:00 19,5 14,9 13 7 18 10 SSW 1017,2 10
16.08.2018 09:00:00 17,1 14,0 9 5 11 6 S 1017,5 10
16.08.2018 08:00:00 15,9 13,7 5 3 - - SSE 1017,9 10
16.08.2018 07:00:00 15,0 13,3 8 4 14 8 S 1018,1 10
16.08.2018 06:00:00 14,7 13,2 5 3 7 4 S 1018,2 10
16.08.2018 05:00:00 14,1 12,9 5 3 - - S 1018,5 10
16.08.2018 04:00:00 14,2 13,0 8 4 7 4 SSW 1018,9 10
16.08.2018 03:00:00 14,3 12,4 8 4 7 4 SW 1019,3 10
16.08.2018 02:00:00 14,6 12,7 8 4 - - SW 1019,5 10
16.08.2018 01:00:00 15,4 12,9 8 4 14 8 S 1019,5 10
16.08.2018 00:00:00 15,4 13,1 8 4 14 8 S 1019,7 10
15.08.2018 23:00:00 16,5 12,7 8 4 - - S 1019,9 10
15.08.2018 22:00:00 17,6 13,1 9 5 14 8 SW 1020,0 10
15.08.2018 21:00:00 18,3 13,7 11 6 22 12 SW 1019,8 20
15.08.2018 20:00:00 19,5 13,5 13 7 - - WSW 1019,7 10
15.08.2018 19:00:00 20,4 13,8 16 9 29 16 WSW 1019,9 10
15.08.2018 18:00:00 20,4 14,4 15 8 22 12 WSW 1020,1 10
15.08.2018 17:00:00 20,2 15,1 15 8 - - SW 1020,3 10
15.08.2018 16:00:00 18,8 14,9 16 9 25 14 SW 1020,7 10
15.08.2018 15:00:00 18,7 15,7 16 9 22 12 SW 1020,9 10
15.08.2018 14:00:00 18,1 15,1 15 8 - - SW 1021,1 10
15.08.2018 13:00:00 19,0 14,5 18 10 25 14 WSW 1020,9 10
15.08.2018 12:00:00 19,1 14,6 13 7 25 14 WSW 1020,9 10
15.08.2018 11:00:00 18,7 14,6 16 9 - - WSW 1021,0 10
15.08.2018 10:00:00 18,1 14,9 16 9 29 16 SW 1020,6 10
15.08.2018 09:00:00 16,5 14,6 18 10 29 16 WSW 1020,4 10
15.08.2018 08:00:00 16,0 14,4 16 9 - - WSW 1020,1 10
15.08.2018 07:00:00 15,3 14,2 16 9 22 12 SW 1019,9 10
15.08.2018 06:00:00 15,3 14,0 13 7 18 10 SW 1019,6 10
15.08.2018 05:00:00 15,1 13,7 15 8 - - SW 1019,6 10
15.08.2018 04:00:00 14,7 13,2 15 8 18 10 SW 1019,9 10
15.08.2018 03:00:00 14,7 12,7 13 7 18 10 SW 1020,1 10
15.08.2018 02:00:00 15,4 12,6 11 6 - - SW 1020,4 10
15.08.2018 01:00:00 15,6 12,6 11 6 18 10 WSW 1020,4 10
15.08.2018 00:00:00 16,5 12,3 9 5 18 10 SW 1020,1 10
14.08.2018 23:00:00 17,3 12,2 9 5 - - W 1019,6 10
14.08.2018 22:00:00 17,9 12,6 5 3 11 6 W 1019,4 10
14.08.2018 21:00:00 19,1 12,7 5 3 22 12 NNW 1018,7 10
14.08.2018 20:00:00 20,2 11,9 9 5 - - W 1018,1 10
14.08.2018 19:00:00 21,2 12,1 15 8 25 14 W 1017,8 10
14.08.2018 18:00:00 21,0 12,6 13 7 25 14 WNW 1017,8 10
14.08.2018 17:00:00 20,9 13,3 11 6 - - W 1017,6 10
14.08.2018 16:00:00 21,7 13,6 11 6 25 14 W 1017,3 10
14.08.2018 15:00:00 21,0 14,8 11 6 29 16 W 1017,0 10
14.08.2018 14:00:00 22,0 14,8 13 7 - - W 1016,7 10
14.08.2018 13:00:00 19,6 14,8 16 9 29 16 WSW 1016,7 10
14.08.2018 12:00:00 19,2 16,1 15 8 25 14 WSW 1016,3 10
14.08.2018 11:00:00 18,0 15,7 13 7 - - W 1016,0 8
14.08.2018 10:00:00 17,2 15,6 13 7 18 10 WSW 1015,7 7
14.08.2018 09:00:00 16,8 15,5 11 6 18 10 WSW 1015,2 6
14.08.2018 08:00:00 16,2 15,1 9 5 - - WSW 1014,4 5
14.08.2018 07:00:00 16,0 15,1 13 7 22 12 WSW 1013,6 5
14.08.2018 06:00:00 15,8 14,9 15 8 22 12 SW 1013,1 7
14.08.2018 05:00:00 15,2 14,3 16 9 - - WSW 1012,9 10
14.08.2018 04:00:00 15,0 14,0 18 10 25 14 SW 1012,7 10
14.08.2018 03:00:00 14,6 13,6 16 9 25 14 SW 1012,4 10
14.08.2018 02:00:00 14,9 13,5 18 10 - - SW 1012,2 10
14.08.2018 01:00:00 15,4 13,3 18 10 25 14 SW 1011,6 10
14.08.2018 00:00:00 15,9 14,0 15 8 22 12 SW 1011,3 10
13.08.2018 23:00:00 16,6 14,3 15 8 - - SW 1010,8 10
13.08.2018 22:00:00 16,9 14,4 15 8 25 14 WSW 1010,4 10
13.08.2018 21:00:00 17,8 15,7 13 7 18 10 SW 1009,4 10
13.08.2018 20:00:00 18,3 15,8 11 6 - - WSW 1009,0 10
13.08.2018 19:00:00 18,1 15,8 15 8 29 16 WSW 1008,5 10
13.08.2018 18:00:00 17,5 16,1 21 11 32 18 SW 1008,4 7
13.08.2018 17:00:00 19,7 15,9 15 8 - - SW 1008,1 10
13.08.2018 16:00:00 17,3 15,4 21 11 36 19 SW 1008,3 10
13.08.2018 15:00:00 17,7 14,3 13 7 32 18 W 1008,1 10
13.08.2018 14:00:00 18,2 15,1 22 12 - - WSW 1008,0 10
13.08.2018 13:00:00 18,8 15,0 26 14 40 21 SW 1007,7 10
13.08.2018 12:00:00 18,9 15,9 18 10 32 18 WSW 1007,5 10
13.08.2018 11:00:00 16,8 16,2 9 5 - - SW 1007,6 10
13.08.2018 10:00:00 16,8 16,0 18 10 29 16 SSW 1007,6 2,5
13.08.2018 09:00:00 17,1 16,0 15 8 25 14 SSW 1007,4 10
13.08.2018 08:00:00 16,7 15,7 13 7 - - SSW 1007,2 10
13.08.2018 07:00:00 16,3 15,5 11 6 22 12 SW 1006,9 10
13.08.2018 06:00:00 16,4 15,7 13 7 22 12 SSE 1006,7 10
13.08.2018 05:00:00 16,4 15,8 13 7 - - ESE 1007,5 10
13.08.2018 04:00:00 16,9 16,3 0 0 14 8 N 1007,7 10
13.08.2018 03:00:00 18,4 14,7 9 5 29 16 WNW 1007,9 10
13.08.2018 02:00:00 20,6 11,2 16 9 - - WSW 1008,6 10
13.08.2018 01:00:00 21,2 9,7 8 4 22 12 WSW 1008,1 10
13.08.2018 00:00:00 21,4 10,0 9 5 18 10 SSE 1008,5 10
12.08.2018 23:00:00 22,3 8,6 11 6 - - SE 1008,9 10
12.08.2018 22:00:00 22,9 8,9 9 5 18 10 SE 1009,5 10
12.08.2018 21:00:00 24,4 8,0 9 5 22 12 S 1009,7 10
12.08.2018 20:00:00 25,6 8,1 11 6 - - SSW 1010,0 10
12.08.2018 19:00:00 25,8 8,0 13 7 29 16 S 1010,5 10
12.08.2018 18:00:00 25,9 8,2 15 8 32 18 S 1011,0 10
12.08.2018 17:00:00 27,1 8,4 13 7 - - S 1011,6 10
12.08.2018 16:00:00 26,9 7,3 18 10 29 16 S 1012,6 10
12.08.2018 15:00:00 26,1 7,1 18 10 32 18 S 1013,5 10
12.08.2018 14:00:00 25,8 7,7 16 9 - - S 1014,2 10
12.08.2018 13:00:00 23,9 6,4 18 10 32 18 SSW 1015,1 10
12.08.2018 12:00:00 23,4 8,7 18 10 32 18 S 1015,8 10
12.08.2018 11:00:00 22,3 8,0 22 12 - - SSW 1016,3 10
12.08.2018 10:00:00 20,2 6,7 16 9 25 14 S 1017,0 10
12.08.2018 09:00:00 18,8 7,3 15 8 22 12 S 1017,4 10
12.08.2018 08:00:00 15,8 7,5 9 5 - - S 1017,9 10
12.08.2018 07:00:00 12,8 7,4 13 7 18 10 SSE 1018,4 10
12.08.2018 06:00:00 12,8 7,5 11 6 14 8 SSE 1018,7 30
12.08.2018 05:00:00 12,8 7,4 9 5 - - SSE 1019,4 10
12.08.2018 04:00:00 13,5 7,4 8 4 11 6 SSE 1019,9 10
12.08.2018 03:00:00 14,2 7,4 8 4 11 6 SSE 1020,2 10
12.08.2018 02:00:00 15,3 7,4 5 3 - - SSW 1021,1 10
12.08.2018 01:00:00 15,0 8,2 5 3 11 6 S 1021,6 10
12.08.2018 00:00:00 15,9 8,2 8 4 11 6 SSW 1021,9 10
11.08.2018 23:00:00 15,8 7,6 4 2 - - SSW 1022,3 10
11.08.2018 22:00:00 18,1 6,9 4 2 11 6 - 1022,1 10
11.08.2018 21:00:00 18,6 7,0 8 4 22 12 WSW 1022,2 10
11.08.2018 20:00:00 20,4 6,3 9 5 - - W 1022,1 10
11.08.2018 19:00:00 21,0 5,6 13 7 29 16 WSW 1022,4 10
11.08.2018 18:00:00 21,9 6,2 11 6 29 16 - 1022,4 10
11.08.2018 17:00:00 21,3 6,1 13 7 - - W 1022,9 10
11.08.2018 16:00:00 21,6 5,5 13 7 32 18 SW 1023,3 10
11.08.2018 15:00:00 21,3 6,5 8 4 29 16 W 1023,5 10
11.08.2018 14:00:00 20,0 5,8 11 6 - - WSW 1024,0 30
11.08.2018 13:00:00 18,6 5,7 13 7 29 16 W 1024,3 10

tt = Température de l'air
td = dewpoint
ff = Vitesse du vent
fx = gusts
dd = Direction du vent
ppp = reduced air pressure
vv = visibility

stations d'obs. à proximité